User: anonymous   Login
Location: Redwood Loop Observatory
(43.9900°N, 124.0900°W)
Time: 03:34:11
(UTC-08:00)
Language:

TIGRISAT - Orbit

View from above orbital plane
View from above orbital plane
View from above satellite
View from above satellite

Ground track
Ground track

The orbit data is extracted from the following two-line orbital elements,

1 40043U 14033AK  19339.70801540 +.00000096 +00000-0 +21659-4 0  9994
2 40043 097.7315 200.0681 0058534 268.0148 091.4357 14.74318869293358
Epoch (UTC): 05 December 2019 16:59:32
Eccentricity: 0.0058534
inclination: 97.7315°
perigee height: 606 km
apogee height: 688 km
right ascension of ascending node: 200.0681°
argument of perigee: 268.0148°
revolutions per day: 14.74318869
mean anomaly at epoch: 91.4357°
orbit number at epoch: 29335

The dashed part of the orbit path shows where the satellite is in the earth's shadow,  

DLR